SWAMPSAT-2 (45115 NORAD) Tracking and Keplerian Element Data

This shows tracking and keplerian element data for the satellite.

Feedback or suggestion? Click here.




ElementValue
Catalog45115
NameSWAMPSAT-2
Epoch Orbit955
Epoch Day94.12214258
Epoch Year2020
RAAN7.2186
Inclination51.6429
Eccentricity0.001372
Argument of Perigee141.9466
Mean Anonmoly218.2488
Mean Motion15.33870892
Decay Rate0.00011982
L11 45115U 19071E 20094.12214258 .00011982 00000-0 37008-3 0 9996
L22 45115 51.6429 7.2186 0013720 141.9466 218.2488 15.33870892 9551

Live tracking and technical data element details for SWAMPSAT-2 (NORAD 45115). SWAMPSAT-2 can be tracked NOW for your location showing map with azimuth and elevation plus other details from your city location.

Track the satellite on the map from your city or location and see movement details for azimuth, elevation, latitude, longitude, range, height, and movement on the map or in text.







IsCatalogInMostPopularTable: catalog: 45115, numindb: 15
Update: records affected: 1



GetName: 45115 SWAMPSAT-2

Hit Count: updated at: Fri, 03 Apr 2020 22:25:37 GMT